Disclaimer

Please do not use the information listed here in-flight or in-navigation, as they are not provided to us by the airports but are provided by volunteers, so they might be outdated.

Search


Regions


Airport information page

Radio informations:
RDO - 118.3 MHz

Airport informations:
Latitude: 45° 24' 15.00" N
Longitude: 141° 48' 03.00" E
Elevation: 30 feet - 9 meters
Operating hours: Remarks
Operating agency: Civil government, landing fees and diplomatic clearance may be required
Timezone: UTC+9
Fuel: N/A

Runway information:
08/26 - 6560 x 150 feet< - >1999 x 46 meters

Recent METARs:
RJCW 170919Z 26021G32KT 1000 R08///// BLSN -SHSN FEW006 SCT010 BKN035 M14/M17 Q0995 RMK 1ST006 3ST010 5CU035 A2938
RJCW 170919Z 26021G32KT 1000 R08///// BLSN -SHSN FEW006 SCT010 BKN035 M14/M17 Q0995 RMK 1ST006 3ST010 5CU035 A2938
RJCW 170919Z 26021G32KT 1000 R08///// BLSN -SHSN FEW006 SCT010 BKN035 M14/M17 Q0995 RMK 1ST006 3ST010 5CU035 A2938

Airport on the map: